Location: Central Falls
(41.8900°N, 71.3929°W)
Time: 13:04:31
(UTC+00:00)

Vanguard 2 Rocket - Pass Details

Date: 09 December 2023
Orbit: 554 x 3310 km, 32.9° (Epoch: 22 February)

Event Time Altitude Azimuth Distance (km) Brightness Sun altitude
Rises 01:29:41 0° 280° (W) 7,294 12.2 -46.6°
Reaches altitude 10° 01:36:39 10° 267° (W) 6,140 11.6 -47.9°
Maximum altitude 01:48:23 21° 229° (SW) 4,716 10.6 -50.0°
Enters shadow 01:56:11 13° 194° (SSW) 4,675 10.4 -51.4°
